NASA909 KEFD-KEFD

Flight info

Callsign NASA909
Flight time 1h 13m
Altitude 2000
Route KARRR7 WWREN W147 PSX TSHRT2 KEFD/17R
Aircraft T38/M-V/N

Departure

Time 2026-05-04 16:56
Airport Ellington Airport (KEFD)

Arrival

Time 2026-05-04 18:09
Airport Ellington Airport (KEFD)
Time Latitude Longitude Altitude Speed Heading
2026-05-04 16:39 29.59683 -95.16737 38 ft 0 kts
2026-05-04 16:50 29.59703 -95.16711 38 ft 8 kts 91°
2026-05-04 16:50 29.59768 -95.16626 38 ft 10 kts 358°
2026-05-04 16:51 29.59881 -95.16629 38 ft 0 kts 359°
2026-05-04 16:51 29.59883 -95.16629 38 ft 2 kts 359°
2026-05-04 16:51 29.60044 -95.16632 37 ft 25 kts 359°
2026-05-04 16:52 29.60515 -95.16640 37 ft 38 kts 359°
2026-05-04 16:52 29.60763 -95.16647 37 ft 31 kts 358°
2026-05-04 16:53 29.61225 -95.16656 37 ft 36 kts 359°
2026-05-04 16:53 29.61728 -95.16595 37 ft 4 kts 44°
2026-05-04 16:55 29.61808 -95.16470 36 ft 14 kts 90°
2026-05-04 16:55 29.61769 -95.16447 36 ft 0 kts 180°
2026-05-04 16:56 29.61246 -95.16433 38 ft 124 kts 179°
2026-05-04 16:56 29.58198 -95.17593 1679 ft 213 kts 248°
2026-05-04 16:57 29.57674 -95.19168 2591 ft 228 kts 243°
2026-05-04 16:57 29.55824 -95.21867 4578 ft 233 kts 205°
2026-05-04 16:58 29.49889 -95.25235 6881 ft 358 kts 219°
2026-05-04 16:58 29.48002 -95.27148 8459 ft 366 kts 225°
2026-05-04 16:59 29.44946 -95.31317 12395 ft 336 kts 230°
2026-05-04 17:00 29.38321 -95.37121 15312 ft 314 kts 227°
2026-05-04 17:00 29.32990 -95.42857 17189 ft 360 kts 230°
2026-05-04 17:01 29.29602 -95.46353 19917 ft 315 kts 220°
2026-05-04 17:01 29.25549 -95.48212 21639 ft 328 kts 205°
2026-05-04 17:02 29.21015 -95.49794 22937 ft 351 kts 207°
2026-05-04 17:02 29.16275 -95.51699 24471 ft 370 kts 208°
2026-05-04 17:03 29.13849 -95.52669 25300 ft 372 kts 207°
2026-05-04 17:03 29.11376 -95.53607 25866 ft 380 kts 208°
2026-05-04 17:03 29.06290 -95.55252 27424 ft 379 kts 206°
2026-05-04 17:04 29.01368 -95.57230 28485 ft 382 kts 211°
2026-05-04 17:04 28.96270 -95.59371 29097 ft 401 kts 210°
2026-05-04 17:05 28.90944 -95.61544 29877 ft 409 kts 212°
2026-05-04 17:05 28.85873 -95.64302 30281 ft 411 kts 223°
2026-05-04 17:06 28.81042 -95.67883 30396 ft 434 kts 224°
2026-05-04 17:06 28.78433 -95.69732 30370 ft 448 kts 221°
2026-05-04 17:07 28.72954 -95.73333 30512 ft 464 kts 220°
2026-05-04 17:07 28.71071 -95.74552 30482 ft 473 kts 220°
2026-05-04 17:07 28.67254 -95.77080 30825 ft 480 kts 221°
2026-05-04 17:07 28.64377 -95.79011 31028 ft 488 kts 220°
2026-05-04 17:08 28.61364 -95.80980 30613 ft 512 kts 218°
2026-05-04 17:08 28.54641 -95.84742 29755 ft 562 kts 212°
2026-05-04 17:08 28.51056 -95.86508 29496 ft 559 kts 214°
2026-05-04 17:09 28.47758 -95.88620 29633 ft 518 kts 226°
2026-05-04 17:09 28.44987 -95.90979 30810 ft 497 kts 223°
2026-05-04 17:09 28.41938 -95.93023 30558 ft 522 kts 219°
2026-05-04 17:10 28.35416 -95.97238 30299 ft 560 kts 219°
2026-05-04 17:10 28.24960 -96.03401 30932 ft 597 kts 198°
2026-05-04 17:11 28.20729 -96.03688 30862 ft 619 kts 187°
2026-05-04 17:11 28.16450 -96.03636 30774 ft 623 kts 185°
2026-05-04 17:12 28.03438 -96.03396 31054 ft 605 kts 190°
2026-05-04 17:12 27.95151 -96.03227 31364 ft 582 kts 186°
2026-05-04 17:13 27.84232 -96.03211 32730 ft 503 kts 189°
2026-05-04 17:14 27.78574 -95.95443 32955 ft 497 kts 57°
2026-05-04 17:14 27.79906 -95.91727 32219 ft 534 kts 72°
2026-05-04 17:14 27.79855 -95.83063 32358 ft 561 kts 88°
2026-05-04 17:15 27.79694 -95.78681 32407 ft 551 kts 88°
2026-05-04 17:15 27.79417 -95.70177 31077 ft 534 kts 86°
2026-05-04 17:16 27.79435 -95.61983 26254 ft 503 kts 76°
2026-05-04 17:16 27.81295 -95.49257 19875 ft 611 kts 82°
2026-05-04 17:17 27.81721 -95.44549 19043 ft 585 kts 83°
2026-05-04 17:17 27.82790 -95.31906 18617 ft 508 kts 85°
2026-05-04 17:18 27.82931 -95.27940 18735 ft 478 kts 86°
2026-05-04 17:18 27.83133 -95.21177 18723 ft 431 kts 84°
2026-05-04 17:19 27.84491 -95.15046 18566 ft 370 kts 359°
2026-05-04 17:19 27.85937 -95.19233 18674 ft 330 kts 280°
2026-05-04 17:20 27.89575 -95.22147 18323 ft 367 kts 341°
2026-05-04 17:20 27.89710 -95.25909 18222 ft 310 kts 250°
2026-05-04 17:20 27.88806 -95.28219 18682 ft 320 kts 251°
2026-05-04 17:21 27.87897 -95.33011 18850 ft 325 kts 297°
2026-05-04 17:21 27.92102 -95.34049 18854 ft 387 kts 27°
2026-05-04 17:22 27.93859 -95.31630 18672 ft 426 kts 69°
2026-05-04 17:22 27.94300 -95.28272 18631 ft 431 kts 82°
2026-05-04 17:23 27.95057 -95.18263 18546 ft 432 kts 82°
2026-05-04 17:23 27.95340 -95.14852 18549 ft 439 kts 82°
2026-05-04 17:23 27.95871 -95.07860 18371 ft 452 kts 83°
2026-05-04 17:24 27.96099 -95.04331 18246 ft 450 kts 83°
2026-05-04 17:24 27.97718 -94.94255 18316 ft 419 kts 49°
2026-05-04 17:25 27.99855 -94.92315 18300 ft 390 kts 14°
2026-05-04 17:25 28.04257 -94.93729 18333 ft 338 kts 292°
2026-05-04 17:26 28.03844 -94.98991 18182 ft 347 kts 261°
2026-05-04 17:26 28.02373 -95.07212 18113 ft 364 kts 261°
2026-05-04 17:27 28.01363 -95.12868 18130 ft 372 kts 261°
2026-05-04 17:27 28.00334 -95.18587 18021 ft 382 kts 261°
2026-05-04 17:28 27.99298 -95.24432 18118 ft 374 kts 264°
2026-05-04 17:29 27.99374 -95.33263 18385 ft 387 kts 272°
2026-05-04 17:29 27.99555 -95.42387 18334 ft 384 kts 273°
2026-05-04 17:30 27.97008 -95.44350 18234 ft 401 kts 74°
2026-05-04 17:31 27.97955 -95.37767 17830 ft 431 kts 79°
2026-05-04 17:31 27.98958 -95.27948 18563 ft 406 kts 91°
2026-05-04 17:32 27.98612 -95.21418 18476 ft 428 kts 91°
2026-05-04 17:33 27.98075 -95.11277 18367 ft 432 kts 92°
2026-05-04 17:33 27.97865 -95.07905 18343 ft 433 kts 96°
2026-05-04 17:34 27.97458 -94.97984 18673 ft 417 kts 79°
2026-05-04 17:34 27.97713 -94.94767 19257 ft 401 kts 85°
2026-05-04 17:35 27.97730 -94.85138 18896 ft 412 kts 89°
2026-05-04 17:35 27.97591 -94.78716 18883 ft 411 kts 90°
2026-05-04 17:35 27.97502 -94.75477 18757 ft 414 kts 91°
2026-05-04 17:36 27.96573 -94.72488 18706 ft 406 kts 131°
2026-05-04 17:36 27.94325 -94.70725 18316 ft 394 kts 169°
2026-05-04 17:36 27.91575 -94.70246 18103 ft 410 kts 179°
2026-05-04 17:36 27.88721 -94.69952 18367 ft 415 kts 180°
2026-05-04 17:37 27.85837 -94.69679 18394 ft 422 kts 180°
2026-05-04 17:37 27.82790 -94.69398 18466 ft 427 kts 180°
2026-05-04 17:37 27.79834 -94.69127 18493 ft 426 kts 180°
2026-05-04 17:37 27.76907 -94.68838 18563 ft 423 kts 179°
2026-05-04 17:38 27.73983 -94.68542 18639 ft 421 kts 179°
2026-05-04 17:38 27.71077 -94.68238 18692 ft 420 kts 179°
2026-05-04 17:38 27.68469 -94.68787 18618 ft 367 kts 249°
2026-05-04 17:38 27.68265 -94.71569 19017 ft 360 kts 278°
2026-05-04 17:39 27.68250 -94.77127 19260 ft 366 kts 263°
2026-05-04 17:39 27.67791 -94.79957 18731 ft 370 kts 262°
2026-05-04 17:39 27.67323 -94.82812 18488 ft 372 kts 263°
2026-05-04 17:40 27.66898 -94.85657 18574 ft 360 kts 263°
2026-05-04 17:40 27.66427 -94.88355 18893 ft 347 kts 259°
2026-05-04 17:40 27.66588 -94.90977 18948 ft 363 kts 308°
2026-05-04 17:40 27.68460 -94.92937 18751 ft 376 kts 317°
2026-05-04 17:41 27.70479 -94.94895 18656 ft 380 kts 316°
2026-05-04 17:41 27.72436 -94.96826 18639 ft 362 kts 316°
2026-05-04 17:41 27.74237 -94.98640 18695 ft 330 kts 313°
2026-05-04 17:41 27.75981 -95.00468 18812 ft 366 kts 315°
2026-05-04 17:42 27.77862 -95.02478 18931 ft 359 kts 313°
2026-05-04 17:42 27.79602 -95.04401 19005 ft 355 kts 314°
2026-05-04 17:42 27.81507 -95.06420 19126 ft 402 kts 313°
2026-05-04 17:42 27.83522 -95.08669 20092 ft 414 kts 314°
2026-05-04 17:43 27.85559 -95.10969 21225 ft 411 kts 312°
2026-05-04 17:43 27.87511 -95.13298 22539 ft 404 kts 311°
2026-05-04 17:43 27.89401 -95.15633 23559 ft 408 kts 310°
2026-05-04 17:43 27.91275 -95.18103 23728 ft 429 kts 306°
2026-05-04 17:44 27.93132 -95.20870 23737 ft 457 kts 306°
2026-05-04 17:44 27.95093 -95.23845 23667 ft 486 kts 306°
2026-05-04 17:44 27.97180 -95.26954 23740 ft 511 kts 305°
2026-05-04 17:44 27.99258 -95.30255 23823 ft 533 kts 304°
2026-05-04 17:45 28.01470 -95.33780 23713 ft 556 kts 303°
2026-05-04 17:45 28.03835 -95.37270 23439 ft 555 kts 308°
2026-05-04 17:45 28.06293 -95.40554 23765 ft 543 kts 308°
2026-05-04 17:45 28.08762 -95.43782 23873 ft 538 kts 309°
2026-05-04 17:46 28.10873 -95.46864 23780 ft 472 kts 306°
2026-05-04 17:46 28.12872 -95.49557 24114 ft 434 kts 310°
2026-05-04 17:46 28.14978 -95.52098 24177 ft 455 kts 311°
2026-05-04 17:46 28.17210 -95.54747 23958 ft 453 kts 312°
2026-05-04 17:47 28.19266 -95.56824 24170 ft 415 kts 332°
2026-05-04 17:47 28.22103 -95.57823 23582 ft 450 kts 340°
2026-05-04 17:47 28.25194 -95.58658 23572 ft 453 kts 356°
2026-05-04 17:47 28.28012 -95.59331 24160 ft 411 kts 330°
2026-05-04 17:48 28.30360 -95.60808 25355 ft 359 kts 321°
2026-05-04 17:48 28.32812 -95.61914 24365 ft 403 kts 338°
2026-05-04 17:48 28.35472 -95.62952 24221 ft 436 kts 345°
2026-05-04 17:48 28.38725 -95.62705 24165 ft 479 kts
2026-05-04 17:49 28.42158 -95.62479 23568 ft 513 kts 356°
2026-05-04 17:49 28.45730 -95.62348 23340 ft 482 kts 354°
2026-05-04 17:49 28.49009 -95.62403 23475 ft 478 kts 353°
2026-05-04 17:49 28.52286 -95.62600 23066 ft 468 kts 349°
2026-05-04 17:50 28.55493 -95.63156 22469 ft 474 kts 346°
2026-05-04 17:50 28.58826 -95.63743 21524 ft 495 kts 347°
2026-05-04 17:50 28.62328 -95.64375 20580 ft 520 kts 346°
2026-05-04 17:50 28.66308 -95.65195 19359 ft 536 kts 345°
2026-05-04 17:51 28.69952 -95.66039 18809 ft 536 kts 344°
2026-05-04 17:51 28.73673 -95.66970 17435 ft 562 kts 344°
2026-05-04 17:51 28.77556 -95.67951 16552 ft 580 kts 345°
2026-05-04 17:51 28.81354 -95.68881 16054 ft 519 kts 345°
2026-05-04 17:52 28.84796 -95.69702 15367 ft 493 kts 345°
2026-05-04 17:52 28.87989 -95.70451 14970 ft 463 kts 345°
2026-05-04 17:52 28.91044 -95.71162 14652 ft 428 kts 345°
2026-05-04 17:52 28.93837 -95.71800 14408 ft 395 kts 345°
2026-05-04 17:53 28.96443 -95.72376 14041 ft 371 kts 345°
2026-05-04 17:53 28.98919 -95.72942 13352 ft 365 kts 345°
2026-05-04 17:53 29.01351 -95.73458 13221 ft 344 kts 346°
2026-05-04 17:53 29.03766 -95.73982 12304 ft 349 kts 348°
2026-05-04 17:54 29.06319 -95.74421 12473 ft 387 kts 347°
2026-05-04 17:54 29.09045 -95.74952 12670 ft 402 kts 347°
2026-05-04 17:54 29.11779 -95.75539 12734 ft 394 kts 346°
2026-05-04 17:54 29.14393 -95.76118 12729 ft 376 kts 346°
2026-05-04 17:55 29.16762 -95.76364 13006 ft 318 kts 353°
2026-05-04 17:55 29.18953 -95.76626 12756 ft 327 kts 346°
2026-05-04 17:55 29.21221 -95.77147 12536 ft 335 kts 344°
2026-05-04 17:55 29.23611 -95.77609 12434 ft 356 kts 347°
2026-05-04 17:56 29.26066 -95.78014 12507 ft 359 kts 348°
2026-05-04 17:56 29.28546 -95.78422 12387 ft 362 kts 348°
2026-05-04 17:56 29.31080 -95.78806 12422 ft 375 kts 349°
2026-05-04 17:56 29.33684 -95.79118 12533 ft 378 kts 354°
2026-05-04 17:57 29.36168 -95.78448 12770 ft 370 kts 27°
2026-05-04 17:57 29.37936 -95.76155 12654 ft 417 kts 56°
2026-05-04 17:57 29.39494 -95.73439 12468 ft 388 kts 51°
2026-05-04 17:57 29.41014 -95.70931 12402 ft 383 kts 51°
2026-05-04 17:58 29.42594 -95.68328 12249 ft 414 kts 52°
2026-05-04 17:58 29.44138 -95.65590 11415 ft 405 kts 54°
2026-05-04 17:58 29.45677 -95.62903 10440 ft 397 kts 53°
2026-05-04 17:58 29.47194 -95.60391 9558 ft 368 kts 53°
2026-05-04 17:59 29.48694 -95.57977 8703 ft 375 kts 54°
2026-05-04 17:59 29.50143 -95.55598 7856 ft 362 kts 54°
2026-05-04 17:59 29.53010 -95.50848 6262 ft 374 kts 55°
2026-05-04 18:00 29.54507 -95.48553 6114 ft 346 kts 53°
2026-05-04 18:00 29.55895 -95.46446 6030 ft 319 kts 53°
2026-05-04 18:00 29.57267 -95.44387 5992 ft 318 kts 52°
2026-05-04 18:00 29.58563 -95.42394 6127 ft 304 kts 55°
2026-05-04 18:01 29.59830 -95.40455 6079 ft 310 kts 54°
2026-05-04 18:01 29.61082 -95.38497 6101 ft 295 kts 54°
2026-05-04 18:01 29.62370 -95.36514 6183 ft 308 kts 54°
2026-05-04 18:02 29.65338 -95.33402 5585 ft 309 kts 23°
2026-05-04 18:02 29.67481 -95.32856 4894 ft 317 kts 359°
2026-05-04 18:02 29.69569 -95.33157 4334 ft 304 kts 347°
2026-05-04 18:02 29.71651 -95.33574 4216 ft 306 kts 351°
2026-05-04 18:03 29.73969 -95.33647 4274 ft 368 kts 12°
2026-05-04 18:03 29.75870 -95.32066 4355 ft 327 kts 62°
2026-05-04 18:03 29.76249 -95.29595 3943 ft 328 kts 96°
2026-05-04 18:03 29.76172 -95.26916 3350 ft 347 kts 91°
2026-05-04 18:04 29.76194 -95.24086 2929 ft 353 kts 94°
2026-05-04 18:04 29.75596 -95.21317 3040 ft 354 kts 125°
2026-05-04 18:04 29.72040 -95.17871 2333 ft 312 kts 146°
2026-05-04 18:05 29.70170 -95.16596 2106 ft 280 kts 170°
2026-05-04 18:05 29.68097 -95.16476 1949 ft 322 kts 179°
2026-05-04 18:05 29.65958 -95.16472 1937 ft 278 kts 179°
2026-05-04 18:05 29.64080 -95.16460 1874 ft 283 kts 180°
2026-05-04 18:06 29.60321 -95.16649 1803 ft 290 kts 205°
2026-05-04 18:06 29.59325 -95.18492 1752 ft 286 kts 277°
2026-05-04 18:06 29.60424 -95.20190 1417 ft 271 kts 335°
2026-05-04 18:07 29.62104 -95.20399 1025 ft 224 kts
2026-05-04 18:07 29.63574 -95.20372 1123 ft 198 kts
2026-05-04 18:07 29.64849 -95.20356 1038 ft 172 kts 10°
2026-05-04 18:07 29.65923 -95.19726 960 ft 187 kts 55°
2026-05-04 18:08 29.66182 -95.18343 954 ft 177 kts 107°
2026-05-04 18:08 29.65681 -95.17134 851 ft 159 kts 133°
2026-05-04 18:08 29.64759 -95.16578 614 ft 157 kts 172°
2026-05-04 18:08 29.63658 -95.16501 383 ft 156 kts 181°
2026-05-04 18:09 29.61565 -95.16443 46 ft 153 kts 179°
2026-05-04 18:09 29.60109 -95.16400 36 ft 42 kts 179°
2026-05-04 18:10 29.59891 -95.16395 38 ft 32 kts 179°
2026-05-04 18:10 29.59725 -95.16400 39 ft 19 kts 210°
2026-05-04 18:10 29.59621 -95.16520 38 ft 17 kts 233°
2026-05-04 18:10 29.59628 -95.16614 38 ft 10 kts 328°
2026-05-04 18:11 29.59660 -95.16677 38 ft 10 kts 268°
2026-05-04 18:11 29.59660 -95.16708 38 ft 2 kts 294°
2026-05-04 18:11 29.59678 -95.16716 38 ft 5 kts
2026-05-04 18:11 29.59683 -95.16716 38 ft 0 kts